Location: Koussan�
(15.2012°N, 12.5548°W)
Time: 12:35:45
(UTC+00:00)

H-2A R/B - Pass Details

Date: 20 October 2020
Orbit: 733 x 837 km, 98.2° (Epoch: 26 November)

Event Time Altitude Azimuth Distance (km) Brightness Sun altitude
Exits shadow 19:15:49 17° 78° (ENE) 1,935 3.4 -12.5°
Maximum altitude 19:16:13 17° 73° (ENE) 1,930 3.4 -12.6°
Drops below altitude 10° 19:19:34 10° 33° (NNE) 2,403 4.2 -13.4°
Sets 19:22:43 0° 14° (NNE) 3,352 5.1 -14.2°
